K3RTA-2 Weather Reports


Display with metric or nautical units.
time (UTC)temp
F
wind
direction
speed
MPH
gust
MPH
rain 1hr
in
rain 24hr
in
rain mn
in
humidity
%
barometer
mb
20260502230004 57 343 2.0 5.0 0.00 0.00 0.00 54 1011.0
20260502225503 57 19 0.0 3.0 0.00 0.00 0.00 54 1011.1
20260502225005 57 22 0.0 3.0 0.00 0.00 0.00 54 1011.2
20260502224005 57 28 0.0 3.0 0.00 0.00 0.00 53 1011.0
20260502223504 57 38 0.0 6.0 0.00 0.00 0.00 53 1011.3
20260502223004 57 14 1.0 6.0 0.00 0.00 0.00 51 1011.2
20260502222504 57 7 0.0 3.0 0.00 0.00 0.00 51 1011.1
20260502222004 57 28 1.0 5.0 0.00 0.00 0.00 49 1010.9
20260502221504 58 6 1.0 6.0 0.00 0.00 0.00 50 1011.0
20260502221005 58 345 1.0 6.0 0.00 0.00 0.00 49 1010.9
20260502220504 58 35 1.0 6.0 0.00 0.00 0.00 50 1011.0
20260502215504 58 351 1.0 3.0 0.00 0.00 0.00 52 1011.1
20260502215004 58 17 0.0 3.0 0.00 0.00 0.00 52 1011.1
20260502214004 58 33 2.0 5.0 0.00 0.00 0.00 51 1010.9
20260502213505 58 53 2.0 7.0 0.00 0.00 0.00 51 1011.0
20260502213004 58 25 2.0 7.0 0.00 0.00 0.00 50 1011.1
20260502212504 58 342 1.0 5.0 0.00 0.00 0.00 52 1011.2
20260502212005 58 33 2.0 5.0 0.00 0.00 0.00 51 1011.1
20260502211504 58 346 2.0 5.0 0.00 0.00 0.00 52 1011.0
20260502211005 58 22 1.0 7.0 0.00 0.00 0.00 50 1011.1
20260502210506 58 48 2.0 7.0 0.00 0.00 0.00 50 1010.9
20260502210004 57 38 3.0 8.0 0.00 0.00 0.00 50 1010.9
20260502205004 58 17 4.0 8.0 0.00 0.00 0.00 50 1010.9
20260502204504 58 3 2.0 9.0 0.00 0.00 0.00 53 1010.9
20260502204004 58 25 3.0 9.0 0.00 0.00 0.00 53 1010.7
20260502203504 58 7 5.0 10.0 0.00 0.00 0.00 53 1010.8
20260502203004 58 7 4.0 10.0 0.00 0.00 0.00 55 1010.9
20260502202505 59 42 3.0 12.0 0.00 0.00 0.00 56 1010.9
20260502202004 59 33 5.0 12.0 0.00 0.00 0.00 59 1010.8
20260502201504 59 14 5.0 9.0 0.00 0.00 0.00 59 1010.7
20260502201005 59 16 2.0 7.0 0.00 0.00 0.00 58 1010.9
20260502200505 59 334 2.0 12.0 0.00 0.00 0.00 59 1010.9
20260502195506 59 31 3.0 8.0 0.00 0.00 0.00 59 1011.1
20260502195005 58 29 2.0 8.0 0.00 0.00 0.00 58 1011.0
20260502194505 59 18 4.0 8.0 0.00 0.00 0.00 58 1011.0
20260502193004 59 347 3.0 12.0 0.00 0.00 0.00 57 1011.1
20260502192004 59 316 2.0 7.0 0.00 0.00 0.00 58 1011.5
20260502191503 60 22 2.0 7.0 0.00 0.00 0.00 59 1011.4
20260502191004 59 15 1.0 7.0 0.00 0.00 0.00 61 1011.4
20260502190504 58 17 3.0 8.0 0.00 0.00 0.00 61 1011.5
20260502190004 58 14 3.0 8.0 0.00 0.00 0.00 61 1011.7
20260502185505 59 34 2.0 8.0 0.00 0.00 0.00 62 1011.6
20260502184504 57 326 1.0 6.0 0.00 0.00 0.00 63 1011.9
20260502183504 57 8 3.0 12.0 0.00 0.00 0.00 63 1012.1
20260502183004 56 355 3.0 12.0 0.00 0.00 0.00 62 1012.1
20260502182504 57 11 3.0 10.0 0.00 0.00 0.00 61 1012.2
20260502182004 57 21 4.0 10.0 0.00 0.00 0.00 62 1012.2
20260502181504 57 349 1.0 8.0 0.00 0.00 0.00 63 1012.3
20260502181005 58 9 3.0 8.0 0.00 0.00 0.00 61 1012.4
20260502180503 58 301 1.0 7.0 0.00 0.00 0.00 62 1012.3
20260502163504 56 357 2.0 6.0 0.00 0.00 0.00 64 1012.8
20260502163004 56 36 1.0 7.0 0.00 0.00 0.00 63 1012.8
20260502162504 56 19 3.0 10.0 0.00 0.00 0.00 63 1012.9
20260502162004 56 11 3.0 10.0 0.00 0.00 0.00 62 1013.0
20260502161504 56 13 4.0 10.0 0.00 0.00 0.00 62 1012.9
20260502161004 56 30 2.0 8.0 0.00 0.00 0.00 63 1013.1
20260502160504 56 0 1.0 5.0 0.00 0.00 0.00 63 1013.1
20260502151504 55 45 4.0 10.0 0.00 0.00 0.00 67 1012.9
20260502151004 56 30 2.0 10.0 0.00 0.00 0.00 68 1012.8
20260502150504 55 36 2.0 12.0 0.00 0.00 0.00 68 1012.9
20260502130505 53 5 2.0 12.0 0.00 0.00 0.00 77 1013.0
20260502123504 52 341 1.0 7.0 0.00 0.00 0.00 81 1013.1